Home > Weather > Charlotte > Past weeks

Flag for USA Past Weather in Charlotte, North Carolina, USA — Yesterday and Last 2 Weeks

Now
67 °F

Light rain. Cloudy.


Feels Like: 67 °F
Forecast: 65 / 72 °F
Wind: 14 mph from North

Location: Charlotte / Douglas International Airport

Current Time: May 29, 2016 at 9:27:39 AM

Latest Report: May 29, 2016 at 8:52 AM


Visibility: 10 mi

Pressure: 30.10 "Hg

Humidity: 87%

Dew Point: 63 °F

Location of CharlotteLocation

Past Weather in Charlotte — Graph

°F

Charlotte Temperature Yesterday

Maximum temperature yesterday: 84 °F (at 3:52 PM)
Minimum temperature yesterday: 62 °F (at 6:52 AM)
Average temperature yesterday: 75 °F

High & Low Weather Summary for the Past Weeks

 TemperatureHumidityPressure
High86 °F (May 26, 2:52 PM)96% (May 21, 6:52 AM)30.27 "Hg (May 21, 6:52 AM)
Low48 °F (May 15, 3:52 AM)27% (May 15, 4:52 PM)29.76 "Hg (May 14, 5:52 PM)
Average67 °F66%30.06 "Hg
* Reported May 14 7:52 AM — May 29 7:52 AM, Charlotte, Weather by CustomWeather, © 2016

Note: Actual official high and low records may vary slightly from our data, if they occured in-between our weather recording intervals... More about our weather records

Advertising

Charlotte Weather History for the Previous 24 Hours

Scroll right to see more
 ConditionsComfort  
Time TempWeatherWind HumidityBarometerVisibility
7:52 AM
Sun, May 29
67 °FLight rain. Fog.9 mph90%30.09 "Hg5 mi
6:52 AM66 °FLight rain. Fog.3 mph90%30.09 "Hg4 mi
5:52 AM67 °FLight rain. Mostly cloudy.9 mph90%30.07 "Hg9 mi
4:52 AM69 °FLight rain. Mostly cloudy.3 mph79%30.06 "Hg10 mi
3:52 AM69 °FMostly cloudy.7 mph81%30.06 "Hg10 mi
2:52 AM69 °FPassing clouds.5 mph84%30.07 "Hg10 mi
1:52 AM70 °FOvercast.3 mph76%30.09 "Hg10 mi
12:52 AM72 °FLight rain. Passing clouds.3 mph64%30.10 "Hg10 mi
11:52 PM
Sat, May 28
74 °FPassing clouds.No wind53%30.11 "Hg10 mi
10:52 PM78 °FMostly cloudy.5 mph39%30.11 "Hg10 mi
9:52 PM79 °FOvercast.6 mph38%30.11 "Hg10 mi
8:52 PM80 °FMostly cloudy.5 mph39%30.11 "Hg10 mi
7:52 PM81 °FMore clouds than sun.5 mph38%30.11 "Hg10 mi
6:52 PM81 °FMore clouds than sun.8 mph35%30.10 "Hg10 mi
5:52 PM82 °FBroken clouds.6 mph35%30.10 "Hg10 mi
4:52 PM83 °FBroken clouds.3 mph37%30.10 "Hg10 mi
3:52 PM84 °FBroken clouds.3 mph38%30.11 "Hg10 mi
2:52 PM82 °FBroken clouds.5 mph34%30.13 "Hg10 mi
1:52 PM82 °FBroken clouds.6 mph38%30.15 "Hg10 mi
12:52 PM81 °FBroken clouds.7 mph44%30.16 "Hg10 mi
11:52 AM79 °FBroken clouds.5 mph47%30.17 "Hg10 mi
10:52 AM77 °FBroken clouds.No wind54%30.17 "Hg10 mi
9:52 AM75 °FScattered clouds.3 mph62%30.16 "Hg10 mi
Weather by CustomWeather, © 2016

See weather overviewHow to use our weather pages